Regional Weather Roundup
Issued by NWS Northern Indiana

Home | Current Version | Previous Version | Text Only | Print | Product List | Glossary On
Versions: 1 2 3 4 5 6 7 8 9 10 11 12 13 14 15 16 17 18 19 20 21 22 23 24 25 26 27 28 29 30 31 32 33 34 35 36 37 38 39 40 41 42 43 44 45 46 47 48 49 50
000
ASUS43 KIWX 250500
RWRIWX

KIWX WEATHER ROUNDUP
NATIONAL WEATHER SERVICE NORTHERN INDIANA
1200 AM EST SUN JAN 25 2015

NOTE: "FAIR" INDICATES FEW OR NO CLOUDS BELOW 12,000 FEET WITH NO
SIGNIFICANT WEATHER AND/OR OBSTRUCTIONS TO VISIBILITY.

* THESE STATIONS ARE NOT UNDER NWS QUALITY CONTROL. THEY ALSO MAY NOT
  REPORT WEATHER SUCH AS PRECIPITATION OR FOG.

INZ001>027-250600-
NORTHERN INDIANA

CITY           SKY/WX    TMP DP  RH WIND       PRES   REMARKS
VALPARAISO     MOCLDY    33  32  96 CALM      29.68F FOG
SOUTH BEND     CLOUDY    36  32  85 CALM      29.69S
GOSHEN         CLOUDY    36  33  89 S6        29.68S
ANGOLA*        CLOUDY    36  25  64 CALM      29.68R
FORT WAYNE     CLOUDY    36  33  89 SW9       29.71R
PERU/GRISSOM   PTCLDY    33  31  93 SW6       29.70S WCI  27

$$
INZ028>050-250600-
CENTRAL INDIANA

CITY           SKY/WX    TMP DP  RH WIND       PRES   REMARKS
LAFAYETTE      CLOUDY    34  32  92 S5        29.70F WCI  30
KOKOMO*        PTCLDY    34  30  86 SW6       29.71S WCI  29
MUNCIE*        CLEAR     35  30  82 SW7       29.72R WCI  29
INDIANAPOLIS   MOCLDY    31  29  92 SW6       29.73S WCI  25

$$
MIZ043>046-050>051-056>058-064>065-071>073-077>080-250600-
SOUTHWEST LOWER MICHIGAN

CITY           SKY/WX    TMP DP  RH WIND       PRES   REMARKS
BATTLE CREEK   CLOUDY    36  31  82 SW6       29.68R
BENTON HARBOR  CLOUDY    35  33  92 CALM      29.69R FOG
COLDWATER*     CLOUDY    35  32  90 SW6       29.67S WCI  30
HILLSDALE*     CLOUDY    36  33  89 SW3       29.67R
HOLLAND        CLOUDY    38  33  82 NW3       29.68S
GRAND RAPIDS   LGT SNOW  34  32  92 CALM      29.67S FOG
KALAMAZOO      CLOUDY    36  30  79 SW3       29.68R
STURGIS*       CLOUDY    34  34 100 SW3       29.67S
THREE RIVERS*  CLOUDY    35  31  85 CALM      29.68S

$$
OHZ001>008-015>018-024>025-250600-
NORTHWEST OHIO

CITY           SKY/WX    TMP DP  RH WIND       PRES   REMARKS
DEFIANCE       CLOUDY    36  32  85 SW6       29.71R
FINDLAY        CLOUDY    35  31  85 SW9       29.70S WCI  28
TOLEDO EXPRESS CLOUDY    35  31  85 SW7       29.68S WCI  29
TOLEDO METCALF CLOUDY    35  30  82 SW8       29.69F WCI  29
LIMA           CLOUDY    37  30  75 SW8       29.71S

$$
AND FOR LAKE MICHIGAN COASTAL AND OPEN LAKE BUOY OBSERVATIONS

STATION/POSITION TEMP    WIND        PRES    VSBY  WAVE
                 AIR SEA DIR/SP/G                  HT/PER
                 (F)     (DEG/KT/KT) (MB)    (MI)  (FT/S)
CALUMET HARBOR    33      20/  3/  4   N/A
MICHIGAN CITY     34     190/  3/  4   N/A
SAINT JOSEPH      35     180/  2/  6 1005.8R

$$
&&



USA.gov is the U.S. government's official web portal to all federal, state and local government web resources and services.